This is the latest recevied weather packets stored in our database for station/object KC9GSD. If no packets are shown the sender has not sent any weather packets the latest 10 day(s).
| Time | Temp. | Humidity | Pressure | Rain* | Wind** | Luminosity | Snow |
|---|---|---|---|---|---|---|---|
| 1778135414 | 16.11° C | 97% | 1011.6 hPa | 0 mm | - | 0 W/m² | - |
| 1778135110 | 16.11° C | 97% | 1011.5 hPa | 0 mm | - | 0 W/m² | - |
| 1778134808 | 16.11° C | 97% | 1011.7 hPa | 0 mm | - | 0 W/m² | - |
| 1778134506 | 16.11° C | 97% | 1011.9 hPa | 0 mm | - | 0 W/m² | - |
| 1778134204 | 16.11° C | 97% | 1011.7 hPa | 1.78 mm | - | 0 W/m² | - |
| 1778133901 | 16.11° C | 97% | 1011.6 hPa | 3.05 mm | - | 0 W/m² | - |
| 1778133597 | 16.67° C | 97% | 1012.2 hPa | 10.16 mm | - | 0 W/m² | - |
| 1778133292 | 16.11° C | 97% | 1012 hPa | 27.69 mm | - | 0 W/m² | - |
| 1778132989 | 16.67° C | 97% | 1011.5 hPa | 23.88 mm | - | 0 W/m² | - |
| 1778132685 | 16.67° C | 97% | 1012.4 hPa | 8.89 mm | - | 0 W/m² | - |
| 1778132383 | 16.67° C | 97% | 1011.6 hPa | 3.05 mm | - | 0 W/m² | - |
| 1778132080 | 16.67° C | 97% | 1011.9 hPa | 3.05 mm | - | 0 W/m² | - |
| 1778131779 | 16.67° C | 97% | 1011.3 hPa | 8.89 mm | - | 0 W/m² | - |
| 1778131476 | 17.22° C | 97% | 1011.9 hPa | 6.1 mm | - | 0 W/m² | - |
| 1778131173 | 17.22° C | 97% | 1012 hPa | 0 mm | - | 0 W/m² | - |
| 1778130870 | 17.22° C | 97% | 1012 hPa | 3.05 mm | - | 0 W/m² | - |
| 1778130567 | 17.78° C | 97% | 1012.1 hPa | 4.83 mm | - | 0 W/m² | - |
| 1778130263 | 17.78° C | 97% | 1012.7 hPa | 7.87 mm | - | 0 W/m² | - |
| 1778129961 | 17.78° C | 97% | 1012.3 hPa | 8.89 mm | - | 0 W/m² | - |
| 1778129657 | 17.78° C | 97% | 1012.3 hPa | 3.05 mm | - | 0 W/m² | - |
| 1778129354 | 17.78° C | 97% | 1012.3 hPa | 0 mm | - | 0 W/m² | - |
| 1778129051 | 17.78° C | 97% | 1012.4 hPa | 0 mm | - | 0 W/m² | - |
| 1778128747 | 17.78° C | 97% | 1011.9 hPa | 0 mm | - | 0 W/m² | - |
| 1778128443 | 17.78° C | 97% | 1012 hPa | 1.78 mm | - | 0 W/m² | - |
| 1778128140 | 17.78° C | 97% | 1012.4 hPa | 4.83 mm | - | 0 W/m² | - |
* Rain latest hour (hover to see other rain measurements)
** Current wind speed in m/s (hover to see current wind gust speed)